Regional Weather Roundup
Issued by NWS

Home | Current Version | Previous Version | Graphics & Text | Print | Product List | Glossary On
Versions: 1 2 3 4 5 6 7 8 9 10 11 12 13 14 15 16 17 18 19 20 21 22 23 24 25 26 27 28 29 30 31 32 33 34 35 36 37 38 39 40 41 42 43 44 45 46 47 48 49 50
044
ASUS45 KTFX 291510
RWRMT
MONTANA REGIONAL WEATHER ROUNDUP
NATIONAL WEATHER SERVICE GREAT FALLS MT
900 AM MDT SAT APR 29 2017

NOTE: "FAIR" INDICATES FEW OR NO CLOUDS BELOW 12000 FEET WITH NO
SIGNIFICANT WEATHER AND/OR OBSTRUCTIONS TO VISIBILITY.

MTZ001>007-043-291600-
WEST OF THE DIVIDE

CITY           SKY/WX    TMP DP  RH WIND       PRES   REMARKS
KALISPELL      CLOUDY    42  40  92 S7        30.24R
MISSOULA       CLOUDY    40  33  76 SE7       30.29S
BUTTE          SUNNY     37  28  70 CALM      30.24R
MULLAN PASS    FOG       31  30  96 VRB5      30.20F VSB 1
ANACONDA         N/A     43  27  52 CALM      30.24S
DEER LODGE       N/A     41  28  60 CALM      30.27F
EUREKA           N/A     39  37  93 CALM      30.22S
HAMILTON         N/A     39  27  60 SW5       30.27F
LIBBY            N/A     37  37 100 CALM      30.23F
PLAINS           N/A     40  36  86 CALM      30.25
$$

MTZ008-052>055-291600-
SOUTHWEST MONTANA

CITY           SKY/WX    TMP DP  RH WIND       PRES   REMARKS
BOZEMAN        SUNNY     42  33  70 S6        30.24S
DILLON         SUNNY     39  25  57 CALM      30.23R
W YELLOWSTONE  SUNNY     32  23  69 NE3       30.23S
ENNIS          PTSUNNY   37  32  81 W3        30.27S
THREE FORKS      N/A     43   9  25 CALM      30.21R
TWIN BRIDGES     N/A     39  30  70 S5        30.20
$$

MTZ009-010-012-014-046-048-049-054-291600-
EAST SLOPES AND CENTRAL MONTANA

CITY           SKY/WX    TMP DP  RH WIND       PRES   REMARKS
CUT BANK       MOSUNNY   46  32  58 W16       30.16R
GREAT FALLS    SUNNY     44  34  67 SW15      30.19S
MALMSTROM AFB  SUNNY     45  36  72 SW15      30.20S
HELENA         SUNNY     43  35  73 N3        30.24R
AUGUSTA          N/A     43  33  68 SW6       30.17S
BOWMANS CRNR     N/A     40  33  76 S14       30.18R
CHOTEAU          N/A     46  32  57 VRB3      30.19S
FAIRFIELD        N/A     43  31  63 SW9       30.18R
POWER            N/A     42  33  70 SW14      30.18R
RAYNESFORD       N/A     41  33  74 NW5       30.20S
ULM              N/A     43  37  77 S8        30.20S
$$

MTZ011-013-016-021-045-047-050-051-291600-
NORTH CENTRAL MONTANA

CITY           SKY/WX    TMP DP  RH WIND       PRES   REMARKS
HAVRE          CLOUDY    40  34  79 E7        30.21R
LEWISTOWN      SUNNY     42  33  70 E8        30.21S
N BAR RANCH      N/A     41  32  70 CALM      30.24F
CHINOOK          N/A     43  34  70 E5        30.21F
DENTON           N/A     39  35  85 MISG      30.18S
FORT BENTON      N/A     45  36  70 MISG      30.22S
GEYSER           N/A     43  34  71 W6        30.20S
GRASS RANGE      N/A     43  35  72 CALM      30.19F
JUDITH GAP       N/A     37  33  86 S13       30.21S WCI  28
STANFORD         N/A     43  33  65 S3        30.20S
WINIFRED         N/A     45  34  65 S9        30.20S
$$

MTZ017>020-022>027-061-062-291600-
NORTHEAST MONTANA

CITY           SKY/WX    TMP DP  RH WIND       PRES   REMARKS
GLASGOW        SUNNY     46  36  68 CALM      30.25S
JORDAN           N/A     43  37  79 CALM      30.25S
SIDNEY         PTSUNNY   49  31  49 CALM      30.25S
WOLF POINT     SUNNY     48  36  63 SW5       30.26F
MALTA          SUNNY     41  39  93 CALM      30.24F
PLENTYWOOD       N/A     46  37  71 S5        30.25S
POPLAR           N/A     46  34  61 W3        30.26F
$$

MTZ028>42-056>058-291600-
SOUTHCENTRAL AND SOUTHEAST MONTANA

CITY           SKY/WX    TMP DP  RH WIND       PRES   REMARKS
BAKER          SUNNY     47  30  51 SW9       30.29R
BILLINGS       MOSUNNY   39  34  82 SW10      30.26R
LIVINGSTON     PTSUNNY   36  35  96 NW7       30.23F WCI  30
MILES CITY     SUNNY     47  34  60 SW6       30.26R
BIG TIMBER     SUNNY     39  37  93 CALM      30.26F
LAUREL           N/A     38  34  85 SW8       30.22F
ROUNDUP          N/A     41  36  82 S5        30.13F
$$

REGIONAL REPORTS...DAKOTAS

CITY           SKY/WX    TMP DP  RH WIND       PRES   REMARKS
WILLISTON      SUNNY     47  28  47 CALM      30.25S
MINOT          SUNNY     57  24  28 S14       30.23R
DICKINSON      SUNNY     52  21  29 W13       30.26R
BEACH            N/A     52  25  35 VRB7      30.29R
TIOGA            N/A     46  27  46 CALM      30.24S
WATFORD CITY     N/A     46  28  49 SW6       30.25R
BISMARCK       CLOUDY    42  29  59 CALM      30.32R
GRAND FORKS    MOSUNNY   47  24  40 S3        30.34R
FARGO          SUNNY     49  24  37 S10       30.35R
BUFFALO SD       N/A     42  29  59 S3        30.23R
RAPID CITY     CLOUDY    43  24  47 N6        30.29S
$$

REGIONAL REPORTS...WYOMING/IDAHO/WASHINGTON

CITY           SKY/WX    TMP DP  RH WIND       PRES   REMARKS
GILLETTE       SUNNY     28  23  81 CALM      30.27S
SHERIDAN       SUNNY     33  25  72 CALM      30.27R
BUFFALO WY     SUNNY     32  18  56 S5        30.27R
CODY           CLOUDY    36  28  73 CALM      30.26R
YELLOWSTONE LA   N/A     20  16  84 CALM      30.22R
IDAHO FALLS    SUNNY     38  30  73 N6        30.23R
SALMON         SUNNY     36  27  69 CALM      30.28S
BOISE          SUNNY     40  32  73 CALM      30.25R
SPOKANE        MOSUNNY   43  35  73 S9        30.24R
$$

REGIONAL REPORTS...ALBERTA

CITY           SKY/WX    TMP DP  RH WIND       PRES   REMARKS
EDMONTON       CLOUDY    45  36  70 W3        30.08S
CALGARY        MOSUNNY   41  34  75 SW6       30.11S
LETHBRIDGE     MOSUNNY   43  37  81 W9        30.14R
MEDICINE HAT   MOSUNNY   45  34  65 CALM      30.15F
CARDSTON         N/A     46  30  53 W7          N/A
MILK RIVER       N/A     45  36  70 W6          N/A
$$

REGIONAL REPORTS...SASKATCHEWAN

CITY           SKY/WX    TMP DP  RH WIND       PRES   REMARKS
SWIFT CURRENT  SUNNY     43  28  56 SW7       30.18S
REGINA         MOSUNNY   41  36  81 SW9       30.22R
SASKATOON      SUNNY     41  32  70 NW6       30.16S
CYPRESS HILLS    N/A     37  28  70 S6          N/A
ASSINIBOIA       N/A     41  32  70 S9          N/A
$$




USA.gov is the U.S. government's official web portal to all federal, state and local government web resources and services.